Columbia Falls, MT

4:38 PM MST on February 09, 2016 (GMT -0700)
Glacier Park International

Weather History for KGPI - March, 2014

Change the Weather History Date:

Saturday, March 15, 2014

  Actual Average Record
Temperature  
Mean Temperature 38 °F 35 °F  
Max Temperature 47 °F 45 °F 64 °F (1910)
Min Temperature 29 °F 25 °F -10 °F (1906)
Degree Days  
Heating Degree Days 27 30  
Month to date heating degree days 495 487  
Since 1 July heating degree days 6429 6339  
Cooling Degree Days 0 0  
Month to date cooling degree days 0 0  
Year to date cooling degree days 0 0  
Moisture  
Dew Point 29 °F    
Average Humidity 69    
Maximum Humidity 92    
Minimum Humidity 45    
Precipitation  
Precipitation T in 0.04 in 0.59 in (2015)
Month to date precipitation 1.91 0.53  
Year to date precipitation 4.35 2.83  
Snow  
Snow 0.00 in - - ()
Month to date snowfall 12.4  
Year to date snowfall 37.6  
Since 1 July snowfall 71.1  
Snow Depth 0.00 in    
Sea Level Pressure  
Sea Level Pressure 30.32 in    
Wind  
Wind Speed 5 mph (South)    
Max Wind Speed 15 mph    
Max Gust Speed 20 mph    
Visibility 10 miles    
Events      
T = Trace of Precipitation, MM = Missing Value Source: NWS Daily Summary

Daily Weather History Graph

Daily Weather History Graph

Search for Another Location

Airport or City:

Trip Planner

Search our weather history database for the weather conditions in past years. The results will help you decide how hot, cold, wet, or windy it might be!

Date:

Astronomy

Mar. 15, 2014 Rise Set
Actual Time 7:49 AM MDT 7:42 PM MDT
Civil Twilight 7:18 AM MDT 8:13 PM MDT
Nautical Twilight 6:42 AM MDT 8:50 PM MDT
Astronomical Twilight 6:05 AM MDT 9:27 PM MDT
Moon 7:05 PM MDT (3/15) 7:06 AM MDT (3/15)
Length of Visible Light 12h 54m
Length of Day
11h 52m
Waxing Gibbous, 99% of the Moon is Illuminated
Mar 15
Waxing Gibbous
Mar 16
Full
Mar 23
Last Quarter
Mar 30
New
Apr 7
First Quarter

Hourly Weather History & Observations

Time (MDT) Temp. Windchill Dew Point Humidity Pressure Visibility Wind Dir Wind Speed Gust Speed Precip Events Conditions
12:55 AM 34.0 °F 29.8 °F 30.9 °F 89% 30.11 in 10.0 mi SSE 4.6 mph - N/A   Scattered Clouds
1:55 AM 34.0 °F 29.8 °F 30.0 °F 85% 30.14 in 10.0 mi SE 4.6 mph - N/A   Mostly Cloudy
2:55 AM 34.0 °F 28.0 °F 30.9 °F 89% 30.18 in 10.0 mi SW 6.9 mph - N/A   Overcast
3:55 AM 35.1 °F 31.0 °F 30.9 °F 85% 30.20 in 10.0 mi SSE 4.6 mph - N/A   Overcast
4:55 AM 34.0 °F 29.8 °F 30.9 °F 89% 30.24 in 10.0 mi SSW 4.6 mph - N/A   Overcast
5:55 AM 34.0 °F - 30.9 °F 89% 30.27 in 10.0 mi Calm Calm - N/A   Overcast
6:55 AM 34.0 °F 31.0 °F 28.0 °F 79% 30.30 in 10.0 mi South 3.5 mph - N/A   Mostly Cloudy
7:55 AM 30.9 °F - 28.0 °F 89% 30.32 in 10.0 mi Calm Calm - N/A   Scattered Clouds
8:55 AM 30.9 °F - 28.0 °F 89% 30.36 in 10.0 mi Calm Calm - N/A   Partly Cloudy
9:55 AM 37.0 °F 34.5 °F 30.9 °F 79% 30.38 in 10.0 mi SSE 3.5 mph - N/A   Partly Cloudy
10:55 AM 41.0 °F 35.2 °F 30.9 °F 67% 30.37 in 10.0 mi SSE 9.2 mph - N/A   Clear
11:55 AM 44.1 °F 38.6 °F 30.0 °F 58% 30.37 in 10.0 mi South 10.4 mph - N/A   Clear
12:55 PM 45.0 °F 41.8 °F 30.0 °F 56% 30.38 in 10.0 mi South 5.8 mph - N/A   Partly Cloudy
1:55 PM 46.9 °F - 27.0 °F 46% 30.37 in 10.0 mi SW 11.5 mph - N/A   Scattered Clouds
2:55 PM 46.0 °F 41.4 °F 27.0 °F 47% 30.39 in 10.0 mi West 9.2 mph - N/A   Overcast
3:55 PM 43.0 °F 38.2 °F 30.0 °F 60% 30.42 in 10.0 mi SW 8.1 mph - 0.00 in   Overcast
4:55 PM 42.1 °F 39.2 °F 28.0 °F 58% 30.40 in 10.0 mi South 4.6 mph - N/A   Overcast
5:55 PM 41.0 °F 34.3 °F 30.9 °F 67% 30.39 in 10.0 mi SE 11.5 mph - N/A   Overcast
6:55 PM 39.9 °F 34.5 °F 30.9 °F 70% 30.38 in 10.0 mi South 8.1 mph - N/A   Overcast
7:55 PM 39.0 °F 34.0 °F 30.0 °F 70% 30.37 in 10.0 mi South 6.9 mph - N/A   Overcast
8:55 PM 35.1 °F 30.1 °F 28.9 °F 78% 30.37 in 10.0 mi SSW 5.8 mph - N/A   Mostly Cloudy
9:55 PM 34.0 °F 28.8 °F 28.9 °F 82% 30.34 in 10.0 mi West 5.8 mph - N/A   Clear
10:55 PM 32.0 °F - 28.0 °F 85% 30.33 in 10.0 mi Calm Calm - N/A   Scattered Clouds
11:55 PM 30.0 °F - 27.0 °F 88% 30.30 in 10.0 mi Calm Calm - N/A   Partly Cloudy